Probability
0 0 3 3 3 3 3 3 0 0 0 0 0 0 0 0 0 0 0 0 0 0 0 0 0 0 3 0 0 0 0 0 0 0 0 0 0 0 0 0 0 0 0
0 0 0 3 3 3 3 3 3 0 0 0 0 0 0 0 0 0 0 0 0 0 0 0 0 0 0 0 0 0 0 0 0 0 0 0 0 0 0 0 0 0 0
0 0 0 0 0 0 3 3 3 0 0 0 0 0 0 0 0 0 0 0 0 0 0 0 0 0 0 0 0 0 0 0 0 0 0 0 0 0 0 0 0 0 0
0 0 0 0 0 0 0 0 0 0 0 0 0 0 0 0 0 0 0 0 0 0 0 0 0 0 0 0 0 0 0 0 0 0 0 0 0 0 0 0 0 0 0
0 0 0 0 0 0 0 0 0 0 0 0 0 0 0 0 0 0 0 0 0 0 0 0 0 0 0 0 0 0 0 0 0 0 0 0 0 0 0 0 0 0 0
0 0 0 0 0 0 0 0 0 0 0 0 0 0 0 0 0 0 0 0 0 0 0 0 0 0 0 0 0 0 0 0 0 0 0 0 0 0 0 0 0 0 0
0 0 0 0 0 0 0 0 0 0 0 0 0 0 3 3 0 0 0 0 0 0 0 0 0 0 0 0 0 0 0 0 0 0 0 0 0 0 0 0 0 0 0
0 0 0 0 0 0 0 0 0 0 0 0 0 3 3 0 0 0 0 0 0 0 0 0 0 0 0 0 0 0 0 0 0 0 0 0 0 0 0 0 0 0 0
0 0 0 0 0 0 0 0 0 0 0 3 3 3 3 0 0 0 0 0 0 0 0 0 0 0 0 0 0 0 0 0 0 0 0 0 0 0 0 0 0 0 0
0 0 0 0 0 0 0 0 0 0 3 3 3 3 0 0 0 0 0 0 0 0 0 0 0 0 0 0 0 0 0 0 0 0 0 0 0 0 0 0 0 0 0
0 0 0 0 0 0 3 0 0 3 3 3 0 3 0 0 0 0 0 0 0 0 0 0 0 0 0 0 0 0 0 0 0 0 0 0 0 0 0 0 0 0 0
0 0 0 0 0 0 3 3 3 3 3 3 3 3 0 0 0 0 0 0 0 0 0 0 0 0 0 0 0 0 0 0 0 0 0 0 0 0 0 0 0 0 0
0 0 0 0 0 0 0 0 3 3 3 3 3 0 0 0 0 0 0 0 0 0 0 0 0 0 0 0 0 0 0 0 0 0 0 0 0 0 0 0 0 0 0
0 0 0 0 0 0 0 0 0 3 3 3 3 0 0 0 0 0 0 0 0 0 0 0 0 0 0 0 0 0 0 0 0 0 0 0 0 0 0 0 0 0 0
0 0 0 0 0 0 0 0 0 0 0 0 0 0 0 0 0 0 0 0 0 0 0 0 0 0 0 0 0 0 0 0 0 0 0 0 0 0 0 0 0 0 0
0 0 0 0 0 0 0 0 0 0 0 0 0 0 0 0 0 0 0 0 0 0 0 0 0 0 0 0 0 0 0 0 0 0 0 0 0 0 0 0 0 0 0
0 0 0 0 0 0 0 0 0 0 0 0 0 0 0 0 0 0 0 0 0 0 0 0 0 0 0 0 0 0 0 0 0 0 0 0 0 0 0 0 0 0 0
0 0 0 0 0 0 0 0 0 0 0 0 0 0 0 0 0 0 0 0 0 0 0 0 0 0 0 0 0 0 0 0 0 0 0 0 0 0 0 0 0 0 0
0 0 0 0 0 0 0 0 0 0 0 0 0 0 0 0 0 0 0 0 0 0 0 0 0 0 0 0 0 0 0 0 0 0 0 0 0 0 0 0 0 0 0
0 0 0 0 0 0 0 0 0 0 0 0 0 0 0 0 0 0 0 0 0 0 0 0 0 0 0 0 0 0 0 0 0 0 0 0 0 0 0 0 0 0 0
0 0 0 0 0 0 0 0 0 0 0 0 0 0 0 0 0 0 0 0 0 0 0 0 0 0 0 0 0 0 0 0 0 0 0 0 0 0 0 0 0 0 0
0 0 0 0 0 0 0 0 0 0 0 0 0 0 0 0 0 0 0 0 0 0 0 0 0 0 0 0 0 0 0 0 0 0 0 0 0 0 0 0 0 0 0
0 0 0 0 0 0 0 0 0 0 0 0 0 0 0 0 0 0 0 0 0 0 0 0 0 0 0 0 0 0 0 0 0 0 0 0 0 0 0 0 0 0 0
0 0 0 0 0 0 0 0 0 0 0 0 0 0 0 0 0 0 0 0 0 0 0 0 0 0 0 0 0 0 0 0 0 0 0 0 0 0 0 0 0 0 0
0 0 0 0 0 0 0 0 0 0 0 0 0 0 0 0 0 0 0 0 0 0 0 0 0 0 0 0 0 0 0 0 0 0 0 0 0 0 0 0 0 0 0
0 0 0 0 0 0 0 0 0 0 0 0 0 0 0 0 0 0 0 0 0 0 0 0 0 0 0 0 0 0 0 0 0 0 0 0 0 0 0 0 0 0 0
Height
5841 5840 5838 5837 5835 5833 5831 5829 5827 5825 5822 5820 5818 5815 5813 5811 5809 5806 5804 5802 5801 5799 5798 5797 5796 5796 5796 5796 5796 5797 5798 5799 5801 5803 5805 5807 5810 5813 5816 5819 5823 5826 5829
5841 5839 5837 5836 5834 5832 5830 5828 5826 5824 5821 5819 5817 5814 5812 5810 5808 5806 5804 5802 5800 5799 5797 5796 5796 5795 5795 5795 5795 5795 5796 5797 5799 5800 5802 5804 5806 5809 5812 5815 5818 5821 5824
5839 5838 5836 5834 5833 5831 5829 5827 5824 5822 5820 5818 5815 5813 5811 5809 5806 5804 5803 5801 5799 5798 5796 5795 5794 5794 5793 5793 5793 5793 5794 5794 5796 5797 5799 5801 5803 5805 5808 5811 5814 5816 5819
5837 5836 5834 5832 5831 5829 5827 5824 5822 5820 5818 5816 5814 5811 5809 5807 5805 5803 5801 5799 5798 5796 5795 5793 5792 5792 5791 5790 5790 5790 5791 5792 5793 5794 5795 5797 5799 5801 5804 5806 5809 5811 5814
5835 5833 5832 5830 5828 5826 5824 5822 5820 5817 5815 5813 5811 5808 5806 5804 5802 5800 5798 5796 5795 5794 5792 5791 5790 5789 5788 5787 5787 5787 5788 5788 5789 5790 5791 5793 5795 5797 5799 5801 5804 5806 5809
5832 5830 5829 5827 5824 5822 5820 5818 5816 5814 5811 5809 5807 5805 5802 5800 5798 5796 5795 5793 5791 5790 5789 5787 5786 5785 5784 5784 5783 5783 5784 5785 5785 5786 5787 5789 5790 5792 5794 5796 5798 5801 5803
5829 5827 5825 5823 5821 5818 5816 5814 5811 5809 5807 5804 5802 5800 5798 5796 5793 5791 5790 5788 5787 5785 5784 5783 5782 5781 5780 5779 5779 5779 5779 5780 5780 5781 5783 5784 5785 5787 5789 5790 5792 5795 5797
5824 5822 5820 5818 5816 5813 5811 5808 5806 5803 5801 5798 5796 5794 5791 5789 5787 5785 5783 5782 5781 5779 5778 5777 5776 5775 5775 5774 5774 5774 5774 5774 5775 5776 5777 5778 5779 5781 5783 5784 5786 5788 5790
5819 5817 5815 5812 5810 5807 5805 5802 5799 5796 5793 5791 5788 5786 5783 5781 5779 5777 5776 5774 5773 5772 5771 5770 5769 5768 5768 5767 5767 5767 5767 5768 5768 5769 5770 5771 5772 5774 5776 5778 5779 5781 5783
5813 5810 5808 5805 5803 5800 5797 5793 5790 5787 5784 5782 5779 5776 5773 5771 5769 5767 5765 5764 5764 5763 5762 5761 5760 5760 5759 5759 5759 5759 5760 5760 5761 5761 5762 5764 5765 5766 5768 5770 5772 5773 5775
5805 5803 5800 5797 5794 5791 5788 5784 5781 5777 5774 5771 5768 5765 5762 5759 5757 5755 5753 5752 5751 5751 5751 5751 5750 5749 5749 5749 5749 5750 5751 5751 5752 5753 5754 5755 5756 5758 5760 5761 5763 5765 5767
5797 5795 5792 5788 5785 5781 5778 5774 5769 5766 5762 5758 5755 5751 5748 5746 5743 5741 5739 5738 5737 5737 5737 5737 5737 5737 5737 5737 5738 5739 5739 5741 5742 5744 5745 5747 5748 5749 5751 5752 5754 5756 5758
5788 5785 5782 5778 5775 5771 5766 5762 5757 5753 5749 5745 5741 5738 5735 5731 5728 5725 5724 5722 5721 5720 5721 5721 5721 5722 5723 5724 5725 5726 5727 5729 5730 5732 5734 5736 5738 5739 5741 5743 5745 5747 5749
5778 5775 5771 5767 5763 5759 5754 5749 5744 5739 5735 5731 5726 5723 5720 5716 5712 5709 5707 5705 5704 5703 5703 5704 5704 5706 5707 5709 5711 5712 5714 5716 5718 5720 5722 5725 5727 5729 5731 5733 5735 5737 5740
5767 5763 5759 5755 5751 5746 5741 5736 5731 5726 5720 5716 5712 5707 5704 5700 5696 5691 5688 5686 5685 5684 5685 5686 5687 5689 5691 5693 5695 5697 5699 5702 5704 5707 5709 5712 5715 5718 5720 5723 5725 5727 5730
5754 5751 5747 5742 5738 5733 5728 5723 5717 5711 5706 5700 5695 5690 5686 5681 5677 5673 5670 5667 5666 5665 5665 5667 5669 5671 5673 5675 5678 5681 5684 5687 5690 5692 5695 5698 5702 5705 5708 5711 5714 5717 5720
5741 5737 5733 5728 5723 5718 5713 5708 5703 5697 5690 5684 5678 5672 5667 5662 5658 5654 5650 5648 5647 5645 5646 5648 5650 5652 5654 5657 5660 5664 5668 5671 5674 5677 5681 5684 5688 5691 5695 5699 5702 5705 5708
5727 5723 5718 5714 5709 5703 5697 5691 5686 5680 5675 5669 5662 5655 5649 5644 5639 5634 5631 5628 5628 5627 5627 5628 5631 5633 5635 5638 5641 5645 5649 5653 5657 5661 5665 5669 5673 5677 5681 5685 5689 5693 5697
5713 5708 5703 5698 5693 5687 5681 5675 5668 5662 5656 5651 5645 5638 5631 5625 5621 5616 5612 5609 5608 5608 5608 5609 5611 5613 5615 5618 5622 5625 5630 5634 5639 5644 5649 5654 5658 5662 5667 5672 5676 5680 5684
5697 5692 5687 5682 5676 5670 5663 5657 5650 5644 5638 5631 5625 5619 5612 5607 5602 5598 5594 5590 5589 5589 5589 5589 5591 5593 5596 5599 5603 5607 5611 5616 5621 5627 5632 5637 5643 5648 5653 5658 5663 5667 5672
5681 5676 5670 5664 5658 5652 5645 5638 5631 5625 5618 5612 5606 5600 5593 5587 5583 5579 5575 5572 5570 5570 5569 5570 5571 5573 5576 5580 5584 5588 5593 5599 5604 5610 5616 5621 5627 5632 5638 5643 5648 5653 5658
5664 5658 5652 5646 5640 5633 5626 5619 5612 5606 5599 5593 5587 5581 5574 5568 5564 5560 5556 5554 5552 5551 5551 5551 5553 5555 5558 5561 5566 5570 5575 5581 5587 5593 5599 5604 5611 5617 5623 5628 5634 5639 5645
5646 5640 5634 5628 5621 5614 5607 5600 5593 5587 5580 5574 5567 5562 5556 5550 5546 5542 5538 5536 5534 5534 5534 5534 5535 5538 5541 5544 5548 5552 5558 5564 5570 5576 5582 5588 5594 5601 5607 5613 5619 5625 5631
5627 5621 5615 5608 5602 5595 5588 5582 5575 5568 5561 5554 5549 5543 5538 5533 5529 5525 5521 5519 5518 5517 5517 5518 5519 5521 5524 5527 5531 5536 5541 5547 5553 5559 5566 5572 5579 5585 5592 5599 5605 5611 5617
5608 5602 5595 5589 5582 5576 5569 5562 5556 5549 5543 5537 5531 5526 5521 5516 5512 5509 5506 5503 5501 5501 5501 5502 5503 5505 5507 5511 5515 5519 5524 5529 5535 5542 5549 5556 5563 5570 5577 5584 5591 5598 5604
5588 5582 5576 5569 5563 5556 5550 5543 5537 5531 5525 5520 5514 5509 5505 5501 5497 5493 5490 5488 5486 5485 5485 5486 5487 5488 5491 5494 5499 5503 5509 5514 5520 5526 5533 5540 5548 5555 5563 5570 5577 5584 5591
Wind_Speed
12 13 14 15 15 16 17 18 18 18 18 19 19 19 18 18 18 16 15 14 13 12 11 9 8 7 6 5 6 8 9 11 13 14 16 18 19 21 21 22 23 23 23
13 14 14 15 15 16 17 18 19 19 19 19 19 19 19 19 18 18 16 15 14 13 12 10 9 9 8 8 8 9 10 11 13 14 15 17 18 19 20 22 23 24 24
14 14 15 15 16 17 18 19 20 20 21 21 21 20 20 20 19 18 18 16 15 14 13 12 11 10 10 10 10 11 11 12 13 14 15 16 18 19 20 20 22 23 24
14 15 16 17 17 18 19 20 21 21 22 22 22 22 21 21 20 20 19 18 16 15 14 13 12 12 12 12 11 12 13 13 15 15 16 17 18 19 20 20 21 22 23
15 16 17 18 19 20 21 22 22 22 23 23 23 23 23 23 22 22 21 20 19 18 17 15 14 14 13 13 13 13 14 15 15 16 17 18 18 19 20 22 22 23 24
17 18 19 20 21 22 23 23 24 24 24 25 25 25 25 24 24 24 23 22 21 20 19 18 17 16 16 15 15 15 16 16 16 16 17 19 19 20 21 22 23 24 24
19 20 21 21 22 23 24 25 26 26 27 27 27 27 27 27 27 27 26 26 24 23 23 22 20 19 19 19 18 17 17 18 19 19 19 19 20 21 22 23 23 23 24
21 22 23 23 24 25 27 28 29 29 30 30 30 30 31 30 30 30 30 29 28 27 26 25 24 23 22 22 22 21 20 20 21 21 21 22 22 22 23 24 24 25 25
24 24 25 26 27 29 30 31 32 32 32 33 34 34 34 34 34 33 33 32 31 30 29 29 28 27 26 26 25 25 24 24 23 24 24 24 24 24 25 25 26 26 26
26 27 28 29 30 32 33 34 34 35 35 36 37 38 37 37 37 36 36 36 35 34 33 33 32 31 30 29 29 28 27 27 26 26 26 26 26 27 27 27 27 27 27
29 30 31 32 33 34 36 37 38 38 39 40 40 41 40 40 40 40 39 39 39 38 37 36 36 35 35 34 33 32 31 31 30 29 29 28 27 27 28 28 28 28 28
32 33 34 35 36 38 40 40 41 42 43 43 43 43 43 43 43 42 42 42 42 42 41 40 39 39 38 37 36 35 35 34 33 32 32 31 30 29 29 29 29 29 29
35 36 37 38 40 41 43 44 45 45 45 44 44 44 45 45 45 45 45 45 45 46 45 44 43 42 41 41 40 39 38 37 36 35 34 34 33 32 31 31 30 29 28
38 39 40 41 42 44 45 46 47 47 46 47 47 46 47 47 47 48 48 48 48 48 47 47 46 44 44 44 43 42 41 40 39 37 36 35 35 34 33 32 32 31 30
41 42 43 44 45 46 47 48 49 49 49 50 50 50 50 50 50 51 51 50 50 50 49 49 47 47 46 46 45 44 44 43 42 40 39 38 37 36 35 34 33 33 32
44 45 46 47 48 49 50 51 52 52 53 53 54 54 54 54 54 53 53 53 52 51 51 50 48 47 47 47 46 46 45 45 44 43 42 41 39 38 37 36 35 34 33
47 48 49 50 51 52 54 55 55 55 56 57 58 58 58 58 56 55 54 53 52 51 51 50 50 49 48 48 48 47 47 47 47 45 44 42 41 40 39 38 37 36 35
50 51 52 53 54 56 57 59 59 59 59 59 61 61 60 59 57 56 55 54 52 51 51 51 50 50 49 49 49 48 48 49 49 48 46 44 43 42 41 39 38 38 37
52 53 55 56 58 59 61 62 62 62 62 62 63 62 61 60 58 57 56 55 53 50 50 51 51 51 51 50 51 50 49 49 49 50 48 46 45 43 42 41 40 38 37
55 57 58 60 61 63 64 65 65 65 65 64 64 63 61 60 58 56 55 55 53 50 49 50 51 51 51 51 50 50 49 49 49 50 49 48 46 45 44 42 41 40 39
58 60 61 63 64 65 66 67 67 66 66 65 64 63 62 61 58 56 54 53 52 50 49 49 50 49 49 49 49 49 49 49 49 50 50 49 48 47 45 44 43 41 40
61 62 64 65 66 67 68 68 68 67 66 66 64 63 61 59 57 55 53 51 50 49 48 47 48 47 47 48 49 49 48 48 48 49 49 49 48 48 48 46 43 42 41
64 65 66 67 68 68 68 68 68 67 67 66 64 62 59 56 54 52 50 48 47 46 45 44 45 46 46 46 48 49 49 47 47 48 49 48 48 48 48 47 46 43 41
66 67 68 68 69 69 69 68 68 67 66 64 61 59 56 54 51 49 47 45 44 44 43 43 43 44 45 45 46 48 49 48 48 48 49 48 47 48 48 48 47 45 43
67 68 69 69 69 69 69 68 67 65 63 60 57 55 53 51 48 46 44 44 43 43 43 43 43 43 44 44 45 46 47 47 48 49 49 48 47 46 47 48 47 45 43
68 69 69 69 69 68 67 66 64 62 59 57 55 53 51 49 47 45 44 43 43 42 42 42 42 41 42 44 45 45 45 46 47 49 49 48 46 45 45 46 46 45 44
Wind_Direction
350 350 351 351 350 351 351 351 351 351 353 353 353 351 349 348 349 348 349 350 348 347 346 340 330 320 306 285 262 253 249 240 233 231 229 228 227 227 226 225 225 227 228
346 347 348 349 349 349 349 348 348 348 348 349 349 349 347 345 345 345 343 343 342 340 335 332 326 318 306 288 273 263 256 247 240 235 232 229 229 229 229 228 230 231 230
343 344 345 345 345 345 344 344 344 344 344 343 343 343 343 341 340 339 339 336 335 332 328 322 318 312 306 292 276 265 258 250 241 240 236 233 234 233 234 232 232 231 231
338 339 339 339 339 338 338 337 337 337 337 337 337 337 337 336 334 332 330 330 327 325 322 317 310 305 299 291 279 268 260 253 246 243 239 237 237 235 235 234 233 233 234
332 332 332 332 332 332 333 333 332 331 331 331 330 330 330 330 328 326 324 321 320 317 314 312 305 299 294 288 279 269 262 257 251 246 242 241 240 238 236 236 236 236 237
324 325 325 326 326 327 328 328 327 327 326 325 325 324 323 322 321 319 318 316 313 310 307 304 300 295 291 286 280 272 264 259 255 251 247 243 243 241 238 238 238 239 240
317 319 319 319 320 321 322 322 322 321 320 319 318 318 317 316 314 312 311 310 308 305 302 299 296 290 287 283 278 273 266 260 257 252 248 246 245 243 242 241 241 241 242
313 315 315 315 315 316 317 317 316 316 315 315 314 313 311 309 308 307 305 303 301 299 296 294 291 288 282 279 275 271 267 263 258 253 250 248 247 245 244 244 245 244 244
310 311 312 312 312 312 313 313 312 311 311 310 310 309 307 305 302 301 300 299 297 294 292 288 286 283 281 277 273 270 266 264 260 256 253 251 249 247 246 245 246 247 245
307 308 309 310 310 311 311 311 310 309 308 307 307 306 303 301 299 297 295 294 292 290 288 286 283 279 276 274 271 269 267 264 261 258 256 252 249 247 248 248 247 246 246
304 306 307 308 309 309 310 310 309 308 307 306 305 303 300 298 296 293 291 289 287 286 284 282 281 277 273 271 270 267 265 263 261 259 256 254 251 250 249 250 249 248 247
302 303 305 306 307 308 309 309 308 307 305 305 304 303 300 297 294 291 289 287 284 283 281 279 277 275 271 268 267 266 264 262 261 258 256 255 253 251 249 248 249 249 248
299 301 303 304 306 307 308 308 307 306 305 304 304 302 300 298 294 290 287 284 282 280 279 277 274 271 268 266 264 263 262 261 260 258 256 253 253 252 249 247 246 247 247
298 300 302 304 305 306 307 307 307 306 305 304 304 302 300 297 294 289 286 283 281 278 276 274 271 269 267 264 262 260 259 259 258 256 255 253 251 250 250 249 246 246 246
299 301 302 304 305 306 307 308 307 306 305 304 303 302 301 298 294 291 288 283 279 276 274 272 269 266 265 263 261 259 257 256 255 254 253 253 251 251 250 249 248 247 246
299 301 302 303 305 306 307 307 307 306 305 303 303 302 301 299 295 292 288 284 280 275 273 270 268 265 263 261 259 257 256 254 253 252 251 250 250 249 248 247 246 246 245
299 301 302 303 304 305 307 307 306 305 305 303 302 302 301 299 296 292 289 284 280 275 272 269 266 264 261 259 257 256 254 252 251 250 249 248 247 246 246 245 244 244 245
299 301 302 303 304 305 306 306 306 305 304 303 302 302 301 299 295 292 288 284 279 275 272 269 265 263 261 257 254 253 252 250 249 248 246 246 245 244 244 243 243 243 243
299 300 301 302 303 304 305 305 305 304 304 303 302 301 301 299 295 291 287 283 279 275 272 268 265 262 260 256 253 251 250 248 247 246 244 243 243 242 241 241 241 241 242
298 300 301 302 303 304 305 305 305 304 304 303 302 301 300 298 294 291 287 283 278 275 271 267 264 261 258 255 252 250 249 246 245 243 242 242 241 240 239 239 240 240 240
298 300 301 302 303 304 305 305 305 304 303 303 302 301 300 298 295 291 287 282 277 274 272 268 264 261 257 254 250 247 246 244 244 243 241 240 239 238 237 237 237 238 239
298 300 301 302 303 304 304 305 305 304 303 303 302 301 300 298 295 292 288 283 277 273 271 267 263 259 255 252 249 246 244 242 241 241 239 238 237 237 235 234 235 236 237
299 300 301 302 303 304 304 304 304 304 303 302 301 300 299 297 295 292 288 283 276 271 267 266 263 258 253 252 249 245 242 241 239 239 238 237 236 236 235 233 232 233 235
298 299 300 301 302 303 303 304 304 303 303 302 301 300 299 297 295 292 288 282 276 270 267 265 262 258 254 251 249 244 242 240 238 236 236 236 235 235 234 233 232 233 234
298 299 300 301 302 302 303 303 303 303 302 302 301 300 298 296 294 292 288 283 277 272 267 265 261 257 252 250 246 243 241 239 237 234 232 232 233 233 232 231 231 231 232
298 299 300 301 301 302 302 303 303 302 301 301 300 299 299 296 294 292 288 283 278 273 268 265 260 255 252 248 244 242 239 238 235 232 230 229 229 230 230 229 229 229 230